G4GVZ-1 Weather Reports


time (UTC)temp
C
wind
direction
speed
KPH
gust
KPH
rain 1hr
cm
rain 24hr
cm
rain mn
cm
humidity
%
barometer
mb
20260505221549 10 347 1.6 8.0 0.00 0.00 0.00 80 1013.3
20260505220049 10 346 0.0 6.4 0.00 0.00 0.00 80 1013.2
20260505214549 10 346 0.0 4.8 0.00 0.00 0.00 79 1013.1
20260505213048 10 346 0.0 8.0 0.00 0.00 0.00 78 1013.2
20260505211548 11 346 0.0 6.4 0.00 0.00 0.00 77 1013.2
20260505210050 11 346 1.6 8.0 0.00 0.00 0.00 77 1013.2
20260505204550 11 346 1.6 8.0 0.00 0.00 0.00 76 1013.0
20260505203049 11 345 0.0 9.7 0.00 0.00 0.00 75 1013.0
20260505201549 11 345 1.6 9.7 0.00 0.00 0.00 74 1012.9
20260505200049 11 344 1.6 12.9 0.00 0.00 0.00 73 1012.8
20260505194549 11 344 1.6 9.7 0.00 0.00 0.00 72 1012.7
20260505193049 12 343 3.2 14.5 0.00 0.00 0.00 70 1012.6
20260505191548 12 346 6.4 20.9 0.00 0.00 0.00 68 1012.6
20260505190050 12 348 4.8 16.1 0.00 0.00 0.00 68 1012.4
20260505184549 12 350 3.2 16.1 0.00 0.00 0.00 68 1012.3
20260505183048 13 353 3.2 17.7 0.00 0.00 0.00 66 1012.3
20260505181548 13 354 4.8 14.5 0.00 0.00 0.00 65 1012.2
20260505180048 13 354 3.2 12.9 0.00 0.00 0.00 64 1012.2
20260505174550 13 352 4.8 17.7 0.00 0.00 0.00 64 1012.3
20260505173050 13 350 4.8 20.9 0.00 0.00 0.00 64 1012.4
20260505171549 13 349 8.0 19.3 0.00 0.00 0.00 64 1012.4
20260505170049 13 356 6.4 17.7 0.00 0.00 0.00 63 1012.4
20260505164549 14 22 4.8 17.7 0.00 0.00 0.00 59 1012.4
20260505163049 14 349 8.0 17.7 0.00 0.00 0.00 59 1012.4
20260505161548 14 359 4.8 16.1 0.00 0.00 0.00 58 1012.3
20260505153049 15 359 4.8 17.7 0.00 0.00 0.00 58 1012.4
20260505151549 14 15 4.8 14.5 0.00 0.00 0.00 58 1012.5
20260505124550 15 14 4.8 17.7 0.00 0.00 0.00 53 1012.8
20260505123050 15 13 4.8 16.1 0.00 0.00 0.00 55 1012.8
20260505121550 15 356 4.8 20.9 0.00 0.00 0.00 54 1012.9
20260505120050 15 359 4.8 17.7 0.00 0.00 0.00 55 1013.0
20260505114549 14 356 6.4 19.3 0.00 0.00 0.00 58 1013.0
20260505113050 14 359 1.6 14.5 0.00 0.00 0.00 59 1013.1
20260505111550 14 347 4.8 19.3 0.00 0.00 0.00 61 1013.1
20260505101550 13 5 4.8 20.9 0.00 0.00 0.00 67 1013.6
20260505100050 13 13 3.2 14.5 0.00 0.00 0.00 67 1013.6
20260505094550 13 4 6.4 24.1 0.00 0.00 0.00 69 1013.7
20260505093050 12 18 6.4 20.9 0.00 0.00 0.00 69 1013.6
20260505092702 12 0 0.0 0.0 0.28 0.28 0.28 93 1010.6
20260505091549 12 10 3.2 17.7 0.00 0.00 0.00 72 1013.7
20260505090050 11 6 4.8 20.9 0.00 0.00 0.00 72 1013.9
20260505084550 11 8 3.2 16.1 0.00 0.00 0.00 76 1014.1
20260505083049 10 2 3.2 16.1 0.00 0.00 0.00 80 1014.1
20260505081549 10 4 6.4 20.9 0.00 0.00 0.00 81 1014.3
20260505080051 10 16 4.8 17.7 0.00 0.00 0.00 82 1014.2
20260505074551 10 21 3.2 16.1 0.00 0.00 0.00 83 1014.1
20260505073050 10 25 3.2 16.1 0.00 0.00 0.00 84 1014.1
20260505071550 10 34 3.2 16.1 0.00 0.00 0.00 84 1014.1
20260505070050 10 36 1.6 9.7 0.00 0.00 0.00 85 1014.0
20260505064547 9 63 0.0 8.0 0.00 0.00 0.00 87 1014.1
20260505063047 8 67 1.6 14.5 0.00 0.00 0.00 89 1013.9
20260505061547 8 76 1.6 9.7 0.00 0.00 0.00 90 1014.0
20260505060047 8 76 0.0 4.8 0.00 0.00 0.00 93 1014.2
20260505054546 8 0 0.0 0.0 0.00 0.00 0.00 95 1014.2
20260505053046 8 0 0.0 0.0 0.00 0.00 0.00 96 1014.4
20260505051548 7 0 0.0 0.0 0.00 0.00 0.00 95 1014.3
20260505041548 7 0 0.0 0.0 0.00 0.00 0.00 94 1013.9
20260505040047 8 0 0.0 0.0 0.00 0.00 0.00 94 1013.9
20260505034547 8 0 0.0 0.0 0.00 0.00 0.00 94 1013.9
20260505033047 8 0 0.0 0.0 0.00 0.00 0.00 93 1014.1
20260505031546 8 77 0.0 6.4 0.00 0.00 0.00 92 1014.1
20260505030046 9 0 0.0 0.0 0.00 0.00 0.00 90 1014.0
20260505024549 9 0 0.0 0.0 0.00 0.00 0.00 91 1013.9
20260505023049 9 0 0.0 0.0 0.00 0.00 0.00 92 1014.0
20260505021548 8 0 0.0 0.0 0.00 0.00 0.00 93 1014.3
20260505020048 8 0 0.0 0.0 0.00 0.00 0.00 93 1014.3
20260505014548 8 0 0.0 0.0 0.00 0.00 0.00 93 1014.3
20260505013048 8 0 0.0 0.0 0.00 0.00 0.00 92 1014.4
20260505011548 8 0 0.0 0.0 0.00 0.00 0.00 93 1014.5
20260505010047 8 0 0.0 0.0 0.00 0.00 0.00 93 1014.4
20260505004547 8 78 0.0 4.8 0.00 0.00 0.00 91 1014.4
20260505003049 8 0 0.0 0.0 0.00 0.00 0.00 90 1014.4
20260505001549 9 0 0.0 0.0 0.00 0.00 0.00 89 1014.5
20260505000048 9 0 0.0 0.0 0.00 0.00 0.00 88 1014.6
20260504234548 10 0 0.0 0.0 0.00 0.00 0.00 88 1014.8
20260504233048 10 0 0.0 0.0 0.00 0.00 0.00 87 1014.7
20260504231547 10 0 0.0 0.0 0.00 0.00 0.00 86 1014.5
20260504230047 10 0 0.0 0.0 0.00 0.00 0.00 86 1014.6
20260504224550 10 0 0.0 0.0 0.00 0.00 0.00 84 1014.8
20260504223050 11 0 0.0 0.0 0.00 0.00 0.00 83 1014.8